Theta_e
302 302 303 303 303 303 303 304 304 304 304 305 305 306 306 307 307 303 300 298 297 292 293 295 295 291 292 291 287 288 289 290 290 282 283 285 285 287 285 287 286 285 285 284 286 285 285 299 298 293 296 300 302 307
302 302 302 302 303 303 303 303 304 304 305 305 306 306 307 308 307 306 297 299 302 295 292 297 297 298 297 296 292 290 288 290 290 287 287 289 286 288 286 282 290 285 289 287 290 292 297 299 296 300 300 298 299 300
301 302 302 301 302 302 303 303 303 304 304 305 306 306 307 307 308 306 299 299 298 295 291 288 290 295 300 299 300 288 289 292 294 296 292 291 285 288 282 285 286 291 295 291 291 297 296 298 299 299 300 299 301 303
301 302 302 301 302 302 302 303 303 304 305 305 306 306 306 307 307 305 299 298 298 295 288 287 296 294 300 300 299 297 293 293 293 291 291 291 287 292 287 288 288 290 293 289 291 296 296 299 297 298 300 301 302 304
301 301 301 301 302 302 302 302 303 304 305 306 306 306 306 305 307 300 296 296 298 292 284 286 293 297 298 299 298 297 294 290 289 289 285 285 291 292 292 292 289 294 290 288 288 295 295 296 298 300 299 299 302 303
301 301 301 301 302 302 302 302 303 304 305 306 306 306 307 306 305 294 289 296 297 296 290 281 290 295 298 301 301 299 294 295 294 291 288 288 291 292 288 286 293 296 297 297 294 299 300 300 301 304 300 300 303 304
301 301 301 302 302 301 302 302 303 304 304 305 305 306 307 306 295 292 290 295 301 298 290 287 287 295 298 299 298 297 294 291 290 290 287 287 288 290 287 284 292 295 298 298 300 299 299 299 297 302 302 302 305 306
300 300 301 301 301 301 301 302 303 304 304 304 305 307 306 305 300 294 297 301 300 293 292 287 285 288 297 294 293 295 293 288 288 287 288 286 287 287 284 290 292 293 295 298 298 301 300 300 301 302 303 303 303 304
300 300 301 301 301 301 301 302 303 304 303 304 306 306 300 295 292 295 307 302 298 293 287 288 285 284 297 293 295 292 291 286 291 289 290 289 283 283 290 290 290 291 293 296 300 301 300 300 300 301 302 302 302 303
300 300 301 301 301 301 301 302 303 303 303 305 299 295 290 296 306 304 296 293 294 295 294 289 292 286 293 294 292 289 289 287 284 289 290 288 287 293 295 294 294 294 295 296 294 295 298 299 299 299 300 303 303 305
300 300 300 301 301 301 301 302 303 302 301 294 291 290 295 302 296 292 287 286 288 289 294 293 292 291 296 289 288 290 286 286 279 287 287 287 287 291 296 296 297 296 297 297 297 298 299 301 300 299 300 302 303 305
299 300 300 300 300 301 301 302 302 295 292 294 297 300 296 293 289 286 282 286 286 285 291 289 289 291 294 293 286 288 284 282 280 290 287 285 290 295 296 296 297 298 298 297 298 298 300 301 303 300 300 301 302 305
299 299 300 300 300 300 301 302 300 301 300 301 297 294 288 287 280 282 281 283 286 288 290 289 287 290 290 290 288 286 281 281 286 280 284 287 292 294 296 297 298 300 300 299 299 299 300 301 303 305 302 302 306 305
299 298 300 300 300 301 301 299 300 299 296 293 290 279 282 281 281 283 283 285 289 289 290 289 287 287 287 285 288 280 282 282 281 279 282 288 292 294 296 299 299 299 300 300 300 300 300 300 302 305 306 304 303 303
298 299 299 298 301 301 299 299 300 297 296 292 288 279 282 287 288 289 290 289 291 291 288 287 287 287 282 284 287 281 280 272 278 282 287 291 293 294 296 298 299 299 300 300 301 301 300 300 300 301 304 305 306 305
298 298 295 300 300 299 299 298 298 300 299 296 291 286 287 287 287 288 288 288 290 289 289 288 284 283 282 285 279 281 281 279 283 286 291 292 292 293 296 298 298 300 301 301 302 302 303 301 300 301 303 304 305 306
297 291 296 298 298 299 298 294 298 300 297 292 287 291 288 287 287 288 288 290 290 289 285 286 282 282 283 277 279 285 283 286 290 291 292 292 291 293 297 298 299 301 300 301 302 303 303 305 303 301 301 303 305 305
292 293 297 298 297 296 295 297 297 296 291 291 288 289 290 290 288 288 290 290 290 288 288 286 287 281 277 278 274 284 287 289 293 292 292 293 293 295 297 296 299 300 300 301 302 302 303 303 304 303 304 305 305 305
295 296 297 298 297 292 290 295 298 290 290 291 290 291 291 291 291 291 291 291 292 291 291 288 285 281 281 286 286 288 289 290 290 291 293 294 294 295 297 297 298 298 299 300 301 301 302 304 304 305 306 307 305 304
298 297 298 298 298 292 292 292 297 290 286 290 290 289 289 289 291 291 291 291 290 289 288 286 286 287 288 290 291 291 292 293 293 291 293 293 295 293 294 293 294 296 296 298 301 298 302 302 304 304 304 303 304 304
295 295 297 295 294 293 291 291 291 290 291 290 291 290 290 289 289 288 290 292 289 286 285 288 289 291 292 294 294 294 293 293 292 293 293 292 294 293 293 294 294 294 294 296 297 300 300 301 302 304 304 304 304 304
293 297 294 295 291 293 289 291 290 292 288 289 288 289 286 283 286 287 290 289 289 289 289 289 290 292 293 294 295 294 295 295 294 294 294 293 293 293 293 293 292 293 293 295 296 297 300 303 301 303 303 303 303 304
294 293 291 290 290 288 286 294 290 290 286 286 285 285 284 282 287 291 288 290 291 292 292 291 292 294 294 295 295 295 295 295 293 293 294 293 294 295 293 293 293 292 292 294 295 297 298 295 300 302 302 302 302 302
295 290 287 286 287 283 290 286 286 284 282 282 280 283 284 285 287 284 285 288 289 291 293 293 293 292 293 294 294 294 293 293 293 294 294 294 293 293 294 293 293 293 293 294 295 297 298 300 297 302 301 300 300 300
286 283 283 279 285 286 285 285 284 281 284 284 283 283 283 286 280 283 285 287 288 290 292 293 291 291 292 292 293 294 295 293 293 293 293 292 293 293 293 294 293 292 294 295 295 296 296 297 298 299 298 298 298 297
278 279 279 281 282 282 283 282 283 283 283 283 283 285 282 282 282 282 285 287 286 288 291 292 291 290 291 294 292 292 293 293 294 292 292 292 292 292 291 290 290 291 293 295 296 295 295 295 295 295 294 295 292 296
275 276 281 287 283 285 282 284 284 281 283 282 280 282 282 281 281 285 288 290 291 293 293 293 292 291 291 290 291 292 292 293 294 294 295 294 293 293 292 291 290 292 294 296 297 297 295 293 292 292 292 291 291 293
281 282 280 280 282 281 282 281 282 281 283 286 285 283 283 283 282 289 289 292 292 293 293 293 293 292 290 290 292 293 293 297 297 295 293 292 293 293 293 293 293 287 292 290 295 296 294 293 291 290 289 288 288 289
282 282 283 280 281 281 282 282 282 285 289 288 284 284 287 291 292 292 293 294 294 293 291 289 288 291 292 292 291 290 291 291 289 287 286 284 285 287 289 291 294 296 294 291 285 288 291 290 290 289 288 287 287 288
282 284 280 280 280 280 282 286 285 287 288 287 288 289 289 291 295 296 294 291 291 291 291 290 289 291 290 290 288 287 286 286 288 288 285 285 286 287 288 288 289 291 293 293 291 291 287 288 285 286 285 283 282 281
283 283 281 279 280 284 287 288 287 287 286 285 287 286 286 290 293 295 291 290 291 291 291 291 291 293 291 289 287 284 282 282 284 285 285 285 285 285 286 287 289 291 293 292 290 288 287 286 284 281 281 280 280 279
281 281 281 280 281 285 286 284 283 284 286 285 285 286 289 289 287 288 290 291 291 290 287 291 290 289 288 286 284 284 282 282 282 282 283 283 283 284 285 286 289 291 291 289 287 286 284 281 280 280 280 279 279 279
283 285 284 283 281 283 283 282 281 281 281 279 284 285 284 285 284 286 289 290 289 290 290 291 292 291 289 288 285 283 283 282 280 279 279 279 278 279 281 283 287 288 287 285 284 283 282 280 279 279 279 279 278 278
Wind_Speed
21 22 23 25 25 24 24 23 23 23 24 25 22 20 18 16 12 1 3 5 3 4 10 9 4 6 5 5 3 5 6 0 3 5 2 3 2 0 3 2 3 3 6 4 4 5 3 21 8 10 9 12 14 15
22 22 23 25 26 26 25 24 24 23 23 23 21 20 17 14 11 1 3 2 2 5 8 9 17 19 17 20 3 2 3 1 2 2 2 3 4 2 3 1 2 1 2 3 3 2 4 7 6 7 7 11 12 16
23 23 24 24 26 26 25 25 25 25 24 22 21 19 17 13 11 5 2 1 2 4 6 4 6 6 4 12 12 4 3 4 2 2 2 1 1 2 3 3 1 3 4 3 7 8 11 10 8 11 13 13 16 15
22 24 24 25 26 26 26 26 26 25 24 23 21 17 14 12 9 4 2 2 1 3 4 8 4 9 7 5 11 12 2 2 1 1 2 2 2 3 2 0 2 3 5 5 5 9 16 5 18 16 19 19 19 18
21 23 25 25 26 27 27 26 27 26 24 23 22 18 14 11 8 2 3 4 5 3 4 7 11 6 6 3 3 9 5 2 2 3 1 3 2 3 3 3 2 1 1 2 1 11 9 13 15 20 17 17 19 18
21 23 25 25 26 27 27 28 27 27 26 24 23 19 14 9 1 1 4 1 5 3 1 5 5 5 5 3 6 12 5 3 2 2 4 3 3 4 2 2 6 9 9 8 4 10 10 18 17 13 15 14 17 17
21 22 25 25 27 27 27 28 28 28 28 25 23 17 11 7 3 3 5 3 4 2 1 5 5 5 5 2 1 1 2 2 3 3 2 3 3 3 2 1 11 14 8 4 10 11 9 17 11 14 14 13 13 13
22 22 24 25 26 27 28 28 30 29 29 27 24 15 5 5 1 4 3 5 6 1 0 3 6 5 5 3 3 3 3 2 1 2 3 2 2 1 1 9 10 12 14 9 11 13 10 14 13 13 12 8 13 15
22 22 24 25 25 27 28 28 29 30 32 27 16 5 4 2 1 4 1 7 1 4 2 2 4 4 4 3 2 4 3 3 2 3 3 2 3 2 4 12 16 14 10 11 11 11 12 14 17 13 9 9 6 12
21 22 23 24 25 26 27 27 26 28 32 17 4 4 4 3 8 3 4 1 1 1 0 3 3 4 3 3 2 3 2 2 3 1 3 0 2 5 7 12 11 11 11 11 12 9 8 12 15 12 9 8 5 6
21 22 23 25 24 25 25 26 24 25 10 6 5 3 4 12 2 3 2 3 3 3 3 5 6 4 3 2 2 2 2 3 3 2 4 1 2 3 11 13 10 10 9 8 8 13 14 12 14 10 11 6 7 4
21 22 23 26 24 24 25 23 19 6 2 4 6 6 4 4 3 3 2 3 0 4 4 3 3 1 1 1 2 2 3 3 3 5 3 3 3 12 12 12 12 11 10 11 9 11 12 12 10 8 9 8 8 6
21 22 24 27 26 24 22 18 21 17 12 1 2 3 2 2 6 3 2 5 3 3 5 4 4 0 0 2 2 2 4 3 4 3 4 3 11 15 14 12 14 15 15 12 12 11 13 12 14 12 11 11 7 7
21 23 24 28 28 22 18 24 22 13 3 3 2 5 4 3 3 5 5 5 6 5 5 3 1 1 2 4 2 3 3 2 5 4 4 4 12 12 11 10 11 15 14 14 12 11 10 9 10 13 8 7 7 7
20 22 25 27 12 20 25 27 25 3 3 3 3 4 5 5 4 4 5 3 5 4 1 2 2 3 3 3 2 3 7 4 0 3 4 8 13 14 13 10 10 11 12 12 13 11 12 10 9 11 10 8 6 7
19 20 7 7 19 27 28 19 4 3 2 3 4 2 2 1 5 3 3 5 3 2 1 3 2 3 3 1 4 1 3 2 4 4 7 10 12 12 13 14 10 10 12 13 11 11 9 8 9 10 10 9 9 8
14 6 8 18 24 29 24 2 2 5 5 4 4 3 4 3 5 5 4 5 1 2 1 1 3 3 2 3 2 2 3 4 5 9 8 10 9 11 11 12 11 14 14 13 14 15 13 6 6 7 9 12 8 10
6 6 17 23 19 12 3 3 3 4 6 5 3 5 4 4 3 4 4 3 2 2 4 3 4 1 4 4 4 4 4 5 6 5 6 7 8 9 6 9 11 11 13 15 15 14 16 14 8 3 7 10 8 12
10 13 22 25 11 5 4 4 2 5 6 3 3 2 3 3 4 3 3 3 3 2 4 2 2 3 4 4 5 4 4 4 3 4 4 7 6 7 7 8 10 11 11 11 12 10 12 15 12 7 4 5 8 7
17 21 23 21 7 3 4 6 1 4 4 5 1 3 4 4 3 2 2 3 4 4 2 3 5 5 5 4 5 5 4 4 2 2 4 5 5 6 6 5 5 8 7 9 8 8 9 10 9 9 9 7 5 4
7 4 7 0 2 4 4 4 5 5 4 3 3 3 4 0 2 2 3 3 2 4 4 5 4 5 5 3 4 3 4 4 3 4 3 3 4 4 5 5 6 4 4 6 7 9 10 10 10 8 10 9 8 7
3 7 3 3 3 4 5 5 5 4 2 4 3 3 3 2 3 4 3 2 4 5 5 5 4 4 4 5 5 5 4 2 1 2 5 4 4 4 4 4 4 5 5 5 5 6 6 8 10 10 8 10 12 7
6 3 3 3 4 4 9 4 4 4 4 4 3 2 3 3 4 3 3 4 4 4 4 4 4 5 6 4 2 3 4 3 2 2 4 3 3 4 3 4 4 4 5 5 5 5 6 7 9 11 10 10 9 11
4 3 4 5 8 6 4 4 3 2 2 1 2 4 4 4 1 1 5 4 4 1 3 5 3 4 2 3 3 3 1 3 2 1 3 3 3 2 2 3 4 4 3 4 4 5 6 7 9 9 11 11 10 10
4 7 5 8 4 4 5 4 4 1 5 4 3 4 5 2 2 3 4 3 2 3 4 4 4 4 5 3 2 3 3 3 3 3 4 3 2 3 3 3 3 3 4 5 5 5 5 6 7 8 11 12 12 12
7 6 10 7 4 5 5 4 5 6 4 3 5 4 3 2 4 7 4 3 4 4 5 7 7 4 3 4 4 3 3 3 4 4 1 3 2 3 2 4 4 5 4 3 3 5 6 6 7 10 10 13 13 13
7 7 4 4 3 2 3 3 2 1 3 4 3 1 2 5 6 4 2 2 3 4 5 5 5 5 5 4 3 4 3 4 4 4 4 3 2 2 3 2 3 4 4 4 4 4 5 6 6 7 7 8 10 11
7 3 7 4 4 3 3 2 3 4 5 4 1 4 4 4 5 3 2 3 3 3 4 4 3 3 3 3 4 5 4 6 7 5 4 3 3 3 3 1 2 3 4 5 5 5 6 5 6 7 8 8 8 9
5 4 4 5 4 4 6 7 6 5 4 4 4 3 4 3 1 5 7 7 2 5 4 4 4 2 5 5 4 3 3 5 6 6 5 2 2 4 5 5 4 5 4 7 8 7 8 6 6 6 7 6 6 6
8 6 5 6 6 8 6 7 4 4 3 4 3 2 2 5 4 2 9 8 5 4 5 3 5 1 3 7 5 5 5 5 2 5 5 4 2 1 3 4 5 4 3 5 5 4 5 6 5 7 8 6 6 5
4 7 4 5 5 5 7 5 4 2 2 4 5 6 7 1 2 2 2 5 3 3 4 4 4 6 5 5 5 6 4 4 6 7 6 4 3 3 3 4 3 1 3 5 5 4 6 7 6 7 8 9 9 8
5 8 6 5 5 5 4 5 4 5 4 4 4 4 3 4 5 1 4 4 2 4 4 7 7 4 4 3 3 4 8 6 5 3 5 3 4 4 4 4 4 3 5 6 6 6 7 7 6 7 8 9 8 8
5 5 5 4 3 4 4 3 2 3 0 2 4 5 4 4 3 1 3 5 3 3 1 2 4 8 7 6 6 6 7 7 9 8 8 8 7 5 4 4 4 5 8 8 7 7 8 9 8 8 8 8 8 8
Wind_Direction
329 330 330 328 327 328 329 330 330 327 323 325 325 316 315 312 316 313 263 197 234 254 277 258 219 218 260 252 272 297 332 6 312 17 321 308 296 24 70 75 102 32 319 179 192 246 249 353 16 49 310 310 310 309
327 328 329 329 327 326 329 329 329 325 323 323 321 319 317 307 300 271 254 170 175 251 261 263 259 255 241 245 248 253 244 271 253 310 293 313 337 19 202 152 133 213 281 300 279 58 48 356 20 326 306 306 311 305
326 325 327 328 327 326 327 329 327 323 323 324 320 317 316 315 296 216 228 286 245 262 288 339 258 277 219 224 204 185 261 227 222 227 302 2 314 312 1 39 10 232 300 263 331 47 347 285 337 345 331 326 323 322
321 321 323 325 326 326 327 328 325 321 324 327 323 321 322 316 311 224 206 179 230 265 286 277 306 295 269 182 193 213 208 346 5 68 255 268 240 190 168 279 314 280 290 336 282 341 327 216 335 325 323 329 339 337
317 318 320 323 324 326 327 327 324 322 326 328 329 323 317 311 302 267 203 215 210 145 266 288 315 289 303 170 243 239 236 118 26 319 236 242 243 157 166 163 220 188 276 27 323 302 286 287 304 315 315 329 333 338
315 316 317 321 323 325 327 326 323 322 327 330 329 321 303 295 300 112 358 273 185 181 324 312 275 298 304 179 223 273 219 196 205 229 256 283 275 63 52 257 161 185 196 194 244 279 283 294 296 295 311 318 326 335
312 315 315 319 321 323 327 326 322 323 326 329 326 315 275 253 123 160 196 205 134 137 9 297 291 272 310 288 329 235 53 178 164 240 255 221 292 106 220 132 348 341 297 235 219 260 267 288 296 307 305 313 326 331
310 314 315 317 320 322 325 326 322 323 323 326 325 312 229 195 283 310 278 247 153 138 14 273 273 337 3 315 323 351 344 25 12 272 323 281 349 137 84 348 325 337 333 347 343 322 257 279 295 293 304 321 339 341
307 312 314 316 319 321 324 326 323 323 321 324 325 124 106 64 55 256 123 111 94 136 259 303 313 307 329 281 2 344 347 343 292 22 313 337 320 58 336 340 337 339 329 314 308 301 267 260 275 286 303 320 336 339
306 309 312 314 318 321 324 322 323 325 319 325 35 39 332 240 317 89 18 36 59 15 216 250 229 264 287 330 30 357 10 341 318 297 278 107 83 281 321 328 320 305 299 317 321 339 304 246 274 296 295 297 286 328
304 307 311 312 315 319 322 322 326 332 341 17 8 313 287 305 58 40 350 60 331 315 225 232 209 274 14 355 350 14 327 315 321 3 314 287 151 316 316 310 300 303 285 275 264 264 263 264 261 271 292 281 285 301
302 304 307 308 311 315 319 317 326 352 282 281 300 288 300 358 23 52 309 325 121 254 277 251 294 200 66 28 62 5 329 347 277 335 286 343 292 318 314 320 312 312 304 313 319 300 290 309 280 248 269 267 265 259
301 303 305 305 309 314 312 309 326 315 309 215 192 265 49 317 28 76 342 302 290 254 256 320 318 298 269 58 69 346 355 300 326 16 318 287 321 320 329 323 324 329 330 320 314 317 317 324 312 317 272 259 250 259
299 303 304 302 308 305 313 324 326 327 279 215 193 314 145 290 246 192 196 223 244 235 278 281 273 55 351 45 345 352 266 29 351 338 317 287 302 318 323 324 330 322 322 317 305 300 298 290 284 284 291 282 249 244
301 305 302 300 279 321 323 325 321 225 191 219 131 236 224 231 245 233 228 282 251 249 313 10 49 97 13 74 39 354 359 350 323 280 263 295 306 312 314 319 328 330 325 319 315 300 285 273 278 285 299 299 315 263
308 312 256 262 315 322 320 325 302 182 229 217 220 185 219 54 284 278 225 245 248 288 99 54 55 55 38 52 47 132 338 270 285 253 283 305 305 304 311 319 318 323 320 324 327 326 315 274 268 278 294 289 285 295
306 237 292 323 324 318 313 238 269 229 220 223 252 211 168 189 216 243 201 244 163 67 303 63 32 207 89 46 283 205 227 221 248 291 298 293 282 295 307 315 330 333 335 336 346 344 340 333 230 258 263 270 255 255
244 276 307 314 327 314 286 229 260 253 249 233 184 229 190 200 202 246 240 220 161 179 130 210 136 181 167 170 265 238 240 254 260 260 269 289 295 303 307 315 319 324 330 338 347 350 349 346 340 265 275 274 262 260
269 288 296 300 304 300 307 286 206 259 238 239 243 231 206 225 222 234 222 210 206 165 123 102 141 202 230 209 218 237 235 232 257 287 290 296 310 325 312 314 325 337 332 331 339 343 341 348 349 331 307 266 252 237
280 280 280 281 263 219 271 265 216 261 262 236 240 225 200 209 224 208 231 211 173 142 139 181 207 213 195 223 197 217 228 244 238 294 316 325 329 340 328 318 324 323 333 335 332 348 347 349 352 352 354 349 331 320
294 265 305 213 196 225 262 271 265 229 262 241 263 172 237 276 231 221 248 146 109 191 213 212 210 224 206 226 197 199 234 207 229 222 242 303 318 316 315 337 339 331 344 340 341 350 6 358 347 352 344 350 337 326
255 302 283 247 240 223 241 231 224 278 280 252 305 197 243 234 226 230 167 167 207 222 198 190 206 179 181 208 223 207 237 252 280 288 289 278 277 345 337 320 339 339 336 334 344 345 347 7 6 354 358 351 358 354
303 189 223 253 247 240 254 148 212 222 232 264 359 232 268 259 226 121 207 208 231 223 203 198 199 178 174 192 192 231 236 170 197 267 311 309 313 296 328 349 340 358 348 333 333 344 354 341 11 10 360 4 3 10
260 250 234 223 197 254 271 254 225 242 260 301 238 248 237 229 181 167 232 220 231 195 181 200 144 110 81 161 191 184 251 211 182 275 277 286 298 294 316 340 327 338 324 302 336 358 7 4 354 12 16 8 8 28
213 233 192 238 229 238 237 244 229 204 239 217 221 256 269 110 165 228 227 234 217 219 207 180 198 201 164 168 162 207 221 158 162 123 356 348 296 358 1 317 334 340 337 5 2 10 8 6 6 19 23 15 12 22
221 234 189 204 231 196 218 245 217 219 204 214 234 248 8 157 205 249 224 222 217 217 193 184 173 166 181 184 179 187 204 163 124 102 11 28 41 91 18 335 347 329 354 342 357 24 25 12 20 30 31 22 16 22
232 249 229 234 221 256 276 270 295 141 243 229 241 273 212 232 236 247 246 208 192 221 190 165 158 176 189 180 158 171 166 151 139 145 141 119 119 119 125 150 290 281 322 5 32 48 54 29 23 29 34 37 26 26
229 232 205 211 212 200 236 253 232 228 232 234 186 183 245 238 228 267 246 287 221 175 175 180 194 199 169 154 156 136 115 117 115 104 87 64 47 14 350 292 55 64 48 37 50 47 63 56 42 40 45 43 31 28
229 214 181 229 216 234 218 202 215 224 201 182 174 229 280 325 347 338 345 330 196 88 52 11 345 67 80 76 67 47 114 146 128 130 129 136 14 346 345 336 49 80 81 75 51 58 66 70 71 65 57 53 44 44
226 172 200 204 200 217 227 193 216 224 200 201 200 179 265 257 260 31 314 299 237 153 133 166 141 89 156 133 120 67 21 15 45 131 149 159 182 291 7 8 5 7 104 110 104 93 67 70 58 55 55 44 38 38
188 173 211 210 239 226 220 216 251 244 221 228 225 226 248 212 47 292 325 314 300 145 126 109 100 132 151 138 128 117 91 13 43 55 70 86 68 21 357 335 314 282 116 102 96 90 91 77 76 74 71 66 57 54
184 196 187 213 247 240 183 202 208 206 221 191 224 195 182 149 201 246 340 330 29 100 105 112 111 90 92 99 89 91 116 119 97 68 56 64 49 2 344 344 343 78 91 93 90 90 86 89 86 83 80 74 66 62
200 190 200 247 252 232 218 171 217 244 209 206 225 196 183 141 135 30 344 26 349 321 107 106 100 108 112 109 116 107 90 90 81 71 72 68 70 48 19 5 36 69 89 90 87 89 87 91 86 86 85 85 80 71